DW0884 Weather Reports


Display with metric or nautical units.
time (UTC)temp
F
wind
direction
speed
MPH
gust
MPH
rain 1hr
in
rain 24hr
in
rain mn
in
humidity
%
barometer
mb
20260505060059 55 0 0.0 0.0 0.00 0.00 0.00 81 1009.7
20260505054558 56 0 0.0 0.0 0.00 0.00 0.00 80 1009.7
20260505053056 56 0 0.0 0.0 0.00 0.00 0.00 78 1009.5
20260505051555 57 0 0.0 0.0 0.00 0.00 0.00 78 1009.3
20260505041554 61 0 0.0 0.0 0.00 0.00 0.00 70 1008.8
20260505034552 63 0 0.0 0.0 0.00 0.00 0.00 66 1008.5
20260505033051 65 0 0.0 0.0 0.00 0.00 0.00 64 1008.3
20260505031601 66 0 0.0 0.0 0.00 0.00 0.00 60 1008.2
20260505030058 67 0 0.0 0.0 0.00 0.00 0.00 58 1008.2
20260505024554 68 0 0.0 2.0 0.00 0.00 0.00 54 1008.1
20260505023055 68 0 0.0 2.0 0.00 0.00 0.00 53 1008.1
20260505021555 69 0 0.0 2.0 0.00 0.00 0.00 53 1008.3
20260505020056 70 148 1.0 3.0 0.00 0.00 0.00 51 1008.3
20260505014605 70 142 1.0 5.0 0.00 0.00 0.00 52 1008.5
20260505013058 71 195 1.0 5.0 0.00 0.00 0.00 51 1008.6
20260505011555 71 161 1.0 7.0 0.00 0.00 0.00 51 1008.7
20260505010056 73 168 0.0 3.0 0.00 0.00 0.00 50 1008.9
20260505004558 73 204 1.0 3.0 0.00 0.00 0.00 50 1008.8
20260505003054 74 220 1.0 5.0 0.00 0.00 0.00 47 1008.8
20260505001557 75 209 1.0 3.0 0.00 0.00 0.00 46 1008.9
20260505000057 74 268 0.0 4.0 0.00 0.00 0.00 49 1009.0
20260504234553 74 297 1.0 4.0 0.00 0.00 0.00 44 1009.1
20260504233052 75 235 1.0 4.0 0.00 0.00 0.00 45 1009.2
20260504231556 74 275 1.0 5.0 0.00 0.00 0.00 44 1009.3
20260504230052 75 281 1.0 4.0 0.00 0.00 0.00 44 1009.3
20260504224554 73 290 2.0 4.0 0.00 0.00 0.00 47 1009.6
20260504223054 73 129 2.0 5.0 0.00 0.00 0.00 46 1009.5
20260504221553 73 196 1.0 5.0 0.00 0.00 0.00 44 1009.7
20260504220101 75 275 2.0 5.0 0.00 0.00 0.00 44 1009.7
20260504214604 73 284 1.0 5.0 0.00 0.00 0.00 51 1009.7
20260504213054 72 236 3.0 5.0 0.00 0.00 0.00 47 1009.9
20260504211555 73 279 4.0 9.0 0.00 0.00 0.00 47 1010.0
20260504204607 73 302 2.0 6.0 0.00 0.00 0.00 47 1010.2
20260504203129 73 130 3.0 7.0 0.00 0.00 0.00 45 1010.2
20260504201554 74 221 1.0 8.0 0.00 0.00 0.00 43 1010.3
20260504200051 74 233 0.0 5.0 0.00 0.00 0.00 48 1010.4
20260504194549 73 352 3.0 7.0 0.00 0.00 0.00 43 1010.5
20260504193052 72 236 3.0 6.0 0.00 0.00 0.00 45 1010.3
20260504191557 73 284 2.0 8.0 0.00 0.00 0.00 46 1010.3
20260504190055 74 26 2.0 7.0 0.00 0.00 0.00 47 1010.4
20260504184559 73 266 2.0 9.0 0.00 0.00 0.00 45 1010.4
20260504183104 72 282 3.0 7.0 0.00 0.00 0.00 49 1010.6
20260504181603 71 250 2.0 6.0 0.00 0.00 0.00 49 1010.5
20260504180116 72 249 2.0 8.0 0.00 0.00 0.00 48 1010.4
20260504174600 70 271 3.0 7.0 0.00 0.00 0.00 49 1010.4
20260504173109 71 262 2.0 6.0 0.00 0.00 0.00 51 1010.4
20260504171615 71 227 2.0 5.0 0.00 0.00 0.00 51 1010.4
20260504170107 71 251 2.0 6.0 0.00 0.00 0.00 52 1010.5
20260504130106 47 0 0.0 0.0 0.00 0.00 0.00 91 1009.6
20260504081558 49 0 0.0 0.0 0.00 0.00 0.00 88 1009.4